Location: Treviso
(45.6669°N, 12.2430°E)
Time: 00:37:30
(UTC+02:00)

ISS - Pass Details

Date: 26 May 2017
Orbit: 402 x 408 km, 51.6° (Epoch: 30 May)

Event Time Altitude Azimuth Distance (km) Brightness Sun altitude
Rises 21:43:11 0° 233° (SW) 2,324 0.2 -8.5°
Reaches altitude 10° 21:45:16 10° 230° (SW) 1,466 -0.9 -8.8°
Maximum altitude 21:48:31 66° 148° (SSE) 449 -3.9 -9.2°
Drops below altitude 10° 21:51:48 10° 65° (ENE) 1,471 -1.2 -9.6°
Sets 21:53:54 0° 63° (ENE) 2,334 -0.2 -9.9°
